owner,sensor,date,latitude,longitude,air_temperature,qcFlag 
COMPS,ioos:station:USF.COMPS:TAR:1,2014-07-01T00:00:00Z,28.1560,-82.7580,31.02,1111122 
COMPS,ioos:station:USF.COMPS:TAR:1,2014-07-01T00:06:00Z,28.1560,-82.7580,31.2,1111122 
COMPS,ioos:station:USF.COMPS:TAR:1,2014-07-01T00:12:00Z,28.1560,-82.7580,31.46,1111122 
COMPS,ioos:station:USF.COMPS:TAR:1,2014-07-01T00:18:00Z,28.1560,-82.7580,31.52,1111122 
COMPS,ioos:station:USF.COMPS:TAR:1,2014-07-01T00:24:00Z,28.1560,-82.7580,31.22,1111122 
COMPS,ioos:station:USF.COMPS:TAR:1,2014-07-01T00:30:00Z,28.1560,-82.7580,29.4,1111122 
COMPS,ioos:station:USF.COMPS:TAR:1,2014-07-01T00:36:00Z,28.1560,-82.7580,27.66,1111122 
COMPS,ioos:station:USF.COMPS:TAR:1,2014-07-01T00:42:00Z,28.1560,-82.7580,27.26,1111122 
COMPS,ioos:station:USF.COMPS:TAR:1,2014-07-01T00:48:00Z,28.1560,-82.7580,27.79,1111122 
COMPS,ioos:station:USF.COMPS:TAR:1,2014-07-01T00:54:00Z,28.1560,-82.7580,28.28,1111122 
COMPS,ioos:station:USF.COMPS:TAR:1,2014-07-01T01:00:00Z,28.1560,-82.7580,28.72,1111122 
COMPS,ioos:station:USF.COMPS:TAR:1,2014-07-01T01:06:00Z,28.1560,-82.7580,28.96,1111122 
COMPS,ioos:station:USF.COMPS:TAR:1,2014-07-01T01:12:00Z,28.1560,-82.7580,28.96,1111122 
COMPS,ioos:station:USF.COMPS:TAR:1,2014-07-01T01:18:00Z,28.1560,-82.7580,28.54,1111122 
COMPS,ioos:station:USF.COMPS:TAR:1,2014-07-01T01:24:00Z,28.1560,-82.7580,26.44,1111122 
COMPS,ioos:station:USF.COMPS:TAR:1,2014-07-01T01:30:00Z,28.1560,-82.7580,25.79,1111122 
COMPS,ioos:station:USF.COMPS:TAR:1,2014-07-01T01:36:00Z,28.1560,-82.7580,25.44,1111122 
COMPS,ioos:station:USF.COMPS:TAR:1,2014-07-01T01:42:00Z,28.1560,-82.7580,25.34,1111122 
COMPS,ioos:station:USF.COMPS:TAR:1,2014-07-01T01:48:00Z,28.1560,-82.7580,25.42,1111122 
COMPS,ioos:station:USF.COMPS:TAR:1,2014-07-01T01:54:00Z,28.1560,-82.7580,25.48,1111122 
COMPS,ioos:station:USF.COMPS:TAR:1,2014-07-01T02:00:00Z,28.1560,-82.7580,25.47,1111122 
COMPS,ioos:station:USF.COMPS:TAR:1,2014-07-01T02:06:00Z,28.1560,-82.7580,25.65,1111122 
COMPS,ioos:station:USF.COMPS:TAR:1,2014-07-01T02:12:00Z,28.1560,-82.7580,25.49,1111122 
COMPS,ioos:station:USF.COMPS:TAR:1,2014-07-01T02:18:00Z,28.1560,-82.7580,25.31,1111122 
COMPS,ioos:station:USF.COMPS:TAR:1,2014-07-01T02:24:00Z,28.1560,-82.7580,25.42,1111122 
COMPS,ioos:station:USF.COMPS:TAR:1,2014-07-01T02:30:00Z,28.1560,-82.7580,25.34,1111122 
COMPS,ioos:station:USF.COMPS:TAR:1,2014-07-01T02:36:00Z,28.1560,-82.7580,25.36,1111122 
COMPS,ioos:station:USF.COMPS:TAR:1,2014-07-01T02:42:00Z,28.1560,-82.7580,25.35,1111122 
COMPS,ioos:station:USF.COMPS:TAR:1,2014-07-01T02:48:00Z,28.1560,-82.7580,25.33,1111122 
COMPS,ioos:station:USF.COMPS:TAR:1,2014-07-01T02:54:00Z,28.1560,-82.7580,25.3,1111122 
COMPS,ioos:station:USF.COMPS:TAR:1,2014-07-01T03:00:00Z,28.1560,-82.7580,25.17,1111122 
COMPS,ioos:station:USF.COMPS:TAR:1,2014-07-01T03:06:00Z,28.1560,-82.7580,25.17,1111122 
COMPS,ioos:station:USF.COMPS:TAR:1,2014-07-01T03:12:00Z,28.1560,-82.7580,25.18,1111122 
COMPS,ioos:station:USF.COMPS:TAR:1,2014-07-01T03:18:00Z,28.1560,-82.7580,25.23,1111122 
COMPS,ioos:station:USF.COMPS:TAR:1,2014-07-01T03:24:00Z,28.1560,-82.7580,25.49,1111122 
COMPS,ioos:station:USF.COMPS:TAR:1,2014-07-01T03:30:00Z,28.1560,-82.7580,25.49,1111122 
COMPS,ioos:station:USF.COMPS:TAR:1,2014-07-01T03:36:00Z,28.1560,-82.7580,25.57,1111122 
COMPS,ioos:station:USF.COMPS:TAR:1,2014-07-01T03:42:00Z,28.1560,-82.7580,25.72,1111122 
COMPS,ioos:station:USF.COMPS:TAR:1,2014-07-01T03:48:00Z,28.1560,-82.7580,25.86,1111122 
COMPS,ioos:station:USF.COMPS:TAR:1,2014-07-01T03:54:00Z,28.1560,-82.7580,25.78,1111122 
COMPS,ioos:station:USF.COMPS:TAR:1,2014-07-01T04:00:00Z,28.1560,-82.7580,25.75,1111122 
COMPS,ioos:station:USF.COMPS:TAR:1,2014-07-01T04:06:00Z,28.1560,-82.7580,25.93,1111122 
COMPS,ioos:station:USF.COMPS:TAR:1,2014-07-01T04:12:00Z,28.1560,-82.7580,25.94,1111122 
COMPS,ioos:station:USF.COMPS:TAR:1,2014-07-01T04:18:00Z,28.1560,-82.7580,25.99,1111122 
COMPS,ioos:station:USF.COMPS:TAR:1,2014-07-01T04:24:00Z,28.1560,-82.7580,26.22,1111122 
COMPS,ioos:station:USF.COMPS:TAR:1,2014-07-01T04:30:00Z,28.1560,-82.7580,26.14,1111122 
COMPS,ioos:station:USF.COMPS:TAR:1,2014-07-01T04:36:00Z,28.1560,-82.7580,26.12,1111122 
COMPS,ioos:station:USF.COMPS:TAR:1,2014-07-01T04:42:00Z,28.1560,-82.7580,26.11,1111122 
COMPS,ioos:station:USF.COMPS:TAR:1,2014-07-01T04:48:00Z,28.1560,-82.7580,26.19,1111122 
COMPS,ioos:station:USF.COMPS:TAR:1,2014-07-01T04:54:00Z,28.1560,-82.7580,26.12,1111122 
COMPS,ioos:station:USF.COMPS:TAR:1,2014-07-01T05:00:00Z,28.1560,-82.7580,26.18,1111122 
COMPS,ioos:station:USF.COMPS:TAR:1,2014-07-01T05:06:00Z,28.1560,-82.7580,26.06,1111122 
COMPS,ioos:station:USF.COMPS:TAR:1,2014-07-01T05:12:00Z,28.1560,-82.7580,26.03,1111122 
COMPS,ioos:station:USF.COMPS:TAR:1,2014-07-01T05:18:00Z,28.1560,-82.7580,25.92,1111122 
COMPS,ioos:station:USF.COMPS:TAR:1,2014-07-01T05:24:00Z,28.1560,-82.7580,26.04,1111122 
COMPS,ioos:station:USF.COMPS:TAR:1,2014-07-01T05:30:00Z,28.1560,-82.7580,25.89,1111122 
COMPS,ioos:station:USF.COMPS:TAR:1,2014-07-01T05:36:00Z,28.1560,-82.7580,25.9,1111122 
COMPS,ioos:station:USF.COMPS:TAR:1,2014-07-01T05:42:00Z,28.1560,-82.7580,25.9,1111122 
COMPS,ioos:station:USF.COMPS:TAR:1,2014-07-01T05:48:00Z,28.1560,-82.7580,25.85,1111122 
COMPS,ioos:station:USF.COMPS:TAR:1,2014-07-01T05:54:00Z,28.1560,-82.7580,25.89,1111122 
COMPS,ioos:station:USF.COMPS:TAR:1,2014-07-01T06:00:00Z,28.1560,-82.7580,25.92,1111122 
COMPS,ioos:station:USF.COMPS:TAR:1,2014-07-01T06:06:00Z,28.1560,-82.7580,26.03,1111122 
COMPS,ioos:station:USF.COMPS:TAR:1,2014-07-01T06:12:00Z,28.1560,-82.7580,26.03,1111122 
COMPS,ioos:station:USF.COMPS:TAR:1,2014-07-01T06:18:00Z,28.1560,-82.7580,26.03,1111122 
COMPS,ioos:station:USF.COMPS:TAR:1,2014-07-01T06:24:00Z,28.1560,-82.7580,26.14,1111122 
COMPS,ioos:station:USF.COMPS:TAR:1,2014-07-01T06:30:00Z,28.1560,-82.7580,26.03,1111122 
COMPS,ioos:station:USF.COMPS:TAR:1,2014-07-01T06:36:00Z,28.1560,-82.7580,26.03,1111122 
COMPS,ioos:station:USF.COMPS:TAR:1,2014-07-01T06:42:00Z,28.1560,-82.7580,26.03,1111122 
COMPS,ioos:station:USF.COMPS:TAR:1,2014-07-01T06:48:00Z,28.1560,-82.7580,26.03,1111122 
COMPS,ioos:station:USF.COMPS:TAR:1,2014-07-01T06:54:00Z,28.1560,-82.7580,26.03,1111122 
COMPS,ioos:station:USF.COMPS:TAR:1,2014-07-01T07:00:00Z,28.1560,-82.7580,26.03,1111122 
COMPS,ioos:station:USF.COMPS:TAR:1,2014-07-01T07:06:00Z,28.1560,-82.7580,26.03,1111122 
COMPS,ioos:station:USF.COMPS:TAR:1,2014-07-01T07:12:00Z,28.1560,-82.7580,26.03,1111122 
COMPS,ioos:station:USF.COMPS:TAR:1,2014-07-01T07:18:00Z,28.1560,-82.7580,26.04,1111122 
COMPS,ioos:station:USF.COMPS:TAR:1,2014-07-01T07:24:00Z,28.1560,-82.7580,26.15,1111122 
COMPS,ioos:station:USF.COMPS:TAR:1,2014-07-01T07:30:00Z,28.1560,-82.7580,26.03,1111122 
COMPS,ioos:station:USF.COMPS:TAR:1,2014-07-01T07:36:00Z,28.1560,-82.7580,26.03,1111122 
COMPS,ioos:station:USF.COMPS:TAR:1,2014-07-01T07:42:00Z,28.1560,-82.7580,26.07,1111122 
COMPS,ioos:station:USF.COMPS:TAR:1,2014-07-01T07:48:00Z,28.1560,-82.7580,26.14,1111122 
COMPS,ioos:station:USF.COMPS:TAR:1,2014-07-01T07:54:00Z,28.1560,-82.7580,26.11,1111122 
COMPS,ioos:station:USF.COMPS:TAR:1,2014-07-01T08:00:00Z,28.1560,-82.7580,26.03,1111122 
COMPS,ioos:station:USF.COMPS:TAR:1,2014-07-01T08:06:00Z,28.1560,-82.7580,26.02,1111122 
COMPS,ioos:station:USF.COMPS:TAR:1,2014-07-01T08:12:00Z,28.1560,-82.7580,26.02,1111122 
COMPS,ioos:station:USF.COMPS:TAR:1,2014-07-01T08:18:00Z,28.1560,-82.7580,25.92,1111122 
COMPS,ioos:station:USF.COMPS:TAR:1,2014-07-01T08:24:00Z,28.1560,-82.7580,26.04,1111122 
COMPS,ioos:station:USF.COMPS:TAR:1,2014-07-01T08:30:00Z,28.1560,-82.7580,26.01,1111122 
COMPS,ioos:station:USF.COMPS:TAR:1,2014-07-01T08:36:00Z,28.1560,-82.7580,26.03,1111122 
COMPS,ioos:station:USF.COMPS:TAR:1,2014-07-01T08:42:00Z,28.1560,-82.7580,26.03,1111122 
COMPS,ioos:station:USF.COMPS:TAR:1,2014-07-01T08:48:00Z,28.1560,-82.7580,26.13,1111122 
COMPS,ioos:station:USF.COMPS:TAR:1,2014-07-01T08:54:00Z,28.1560,-82.7580,26.17,1111122 
COMPS,ioos:station:USF.COMPS:TAR:1,2014-07-01T09:00:00Z,28.1560,-82.7580,26.17,1111122 
COMPS,ioos:station:USF.COMPS:TAR:1,2014-07-01T09:06:00Z,28.1560,-82.7580,26.21,1111122 
COMPS,ioos:station:USF.COMPS:TAR:1,2014-07-01T09:12:00Z,28.1560,-82.7580,26.2,1111122 
COMPS,ioos:station:USF.COMPS:TAR:1,2014-07-01T09:18:00Z,28.1560,-82.7580,26.16,1111122 
COMPS,ioos:station:USF.COMPS:TAR:1,2014-07-01T09:24:00Z,28.1560,-82.7580,26.12,1111122 
COMPS,ioos:station:USF.COMPS:TAR:1,2014-07-01T09:30:00Z,28.1560,-82.7580,25.91,1111122 
COMPS,ioos:station:USF.COMPS:TAR:1,2014-07-01T09:36:00Z,28.1560,-82.7580,25.79,1111122 
COMPS,ioos:station:USF.COMPS:TAR:1,2014-07-01T09:42:00Z,28.1560,-82.7580,25.78,1111122 
COMPS,ioos:station:USF.COMPS:TAR:1,2014-07-01T09:48:00Z,28.1560,-82.7580,25.85,1111122 
COMPS,ioos:station:USF.COMPS:TAR:1,2014-07-01T09:54:00Z,28.1560,-82.7580,25.75,1111122 
COMPS,ioos:station:USF.COMPS:TAR:1,2014-07-01T10:00:00Z,28.1560,-82.7580,25.64,1111122 
COMPS,ioos:station:USF.COMPS:TAR:1,2014-07-01T10:06:00Z,28.1560,-82.7580,25.67,1111122 
COMPS,ioos:station:USF.COMPS:TAR:1,2014-07-01T10:12:00Z,28.1560,-82.7580,25.65,1111122 
COMPS,ioos:station:USF.COMPS:TAR:1,2014-07-01T10:18:00Z,28.1560,-82.7580,25.62,1111122 
COMPS,ioos:station:USF.COMPS:TAR:1,2014-07-01T10:24:00Z,28.1560,-82.7580,25.71,1111122 
COMPS,ioos:station:USF.COMPS:TAR:1,2014-07-01T10:30:00Z,28.1560,-82.7580,25.6,1111122 
COMPS,ioos:station:USF.COMPS:TAR:1,2014-07-01T10:36:00Z,28.1560,-82.7580,25.49,1111122 
COMPS,ioos:station:USF.COMPS:TAR:1,2014-07-01T10:42:00Z,28.1560,-82.7580,25.56,1111122 
COMPS,ioos:station:USF.COMPS:TAR:1,2014-07-01T10:48:00Z,28.1560,-82.7580,25.6,1111122 
COMPS,ioos:station:USF.COMPS:TAR:1,2014-07-01T10:54:00Z,28.1560,-82.7580,25.65,1111122 
COMPS,ioos:station:USF.COMPS:TAR:1,2014-07-01T11:00:00Z,28.1560,-82.7580,25.62,1111122 
COMPS,ioos:station:USF.COMPS:TAR:1,2014-07-01T11:06:00Z,28.1560,-82.7580,25.62,1111122 
COMPS,ioos:station:USF.COMPS:TAR:1,2014-07-01T11:12:00Z,28.1560,-82.7580,25.74,1111122 
COMPS,ioos:station:USF.COMPS:TAR:1,2014-07-01T11:18:00Z,28.1560,-82.7580,25.9,1111122 
COMPS,ioos:station:USF.COMPS:TAR:1,2014-07-01T11:24:00Z,28.1560,-82.7580,26.22,1111122 
COMPS,ioos:station:USF.COMPS:TAR:1,2014-07-01T11:30:00Z,28.1560,-82.7580,26.5,1111122 
COMPS,ioos:station:USF.COMPS:TAR:1,2014-07-01T11:36:00Z,28.1560,-82.7580,27.05,1111122 
COMPS,ioos:station:USF.COMPS:TAR:1,2014-07-01T11:42:00Z,28.1560,-82.7580,27.22,1111122 
COMPS,ioos:station:USF.COMPS:TAR:1,2014-07-01T11:48:00Z,28.1560,-82.7580,27.46,1111122 
COMPS,ioos:station:USF.COMPS:TAR:1,2014-07-01T11:54:00Z,28.1560,-82.7580,27.72,1111122 
COMPS,ioos:station:USF.COMPS:TAR:1,2014-07-01T12:00:00Z,28.1560,-82.7580,27.82,1111122 
COMPS,ioos:station:USF.COMPS:TAR:1,2014-07-01T12:06:00Z,28.1560,-82.7580,27.98,1111122 
COMPS,ioos:station:USF.COMPS:TAR:1,2014-07-01T12:12:00Z,28.1560,-82.7580,27.79,1111122 
COMPS,ioos:station:USF.COMPS:TAR:1,2014-07-01T12:18:00Z,28.1560,-82.7580,28.1,1111122 
COMPS,ioos:station:USF.COMPS:TAR:1,2014-07-01T12:24:00Z,28.1560,-82.7580,28.49,1111122 
COMPS,ioos:station:USF.COMPS:TAR:1,2014-07-01T12:30:00Z,28.1560,-82.7580,28.26,1111122 
COMPS,ioos:station:USF.COMPS:TAR:1,2014-07-01T12:36:00Z,28.1560,-82.7580,28.64,1111122 
COMPS,ioos:station:USF.COMPS:TAR:1,2014-07-01T12:42:00Z,28.1560,-82.7580,29.09,1111122 
COMPS,ioos:station:USF.COMPS:TAR:1,2014-07-01T12:48:00Z,28.1560,-82.7580,29.06,1111122 
COMPS,ioos:station:USF.COMPS:TAR:1,2014-07-01T12:54:00Z,28.1560,-82.7580,29.15,1111122 
COMPS,ioos:station:USF.COMPS:TAR:1,2014-07-01T13:00:00Z,28.1560,-82.7580,29.68,1111122 
COMPS,ioos:station:USF.COMPS:TAR:1,2014-07-01T13:06:00Z,28.1560,-82.7580,30.21,1111122 
COMPS,ioos:station:USF.COMPS:TAR:1,2014-07-01T13:12:00Z,28.1560,-82.7580,30.8,1111122 
COMPS,ioos:station:USF.COMPS:TAR:1,2014-07-01T13:18:00Z,28.1560,-82.7580,31.33,1111122 
COMPS,ioos:station:USF.COMPS:TAR:1,2014-07-01T13:24:00Z,28.1560,-82.7580,31.51,1111122 
COMPS,ioos:station:USF.COMPS:TAR:1,2014-07-01T13:30:00Z,28.1560,-82.7580,31.18,1111122 
COMPS,ioos:station:USF.COMPS:TAR:1,2014-07-01T13:36:00Z,28.1560,-82.7580,31.38,1111122 
COMPS,ioos:station:USF.COMPS:TAR:1,2014-07-01T13:42:00Z,28.1560,-82.7580,31.68,1111122 
COMPS,ioos:station:USF.COMPS:TAR:1,2014-07-01T13:48:00Z,28.1560,-82.7580,32.22,1111122 
COMPS,ioos:station:USF.COMPS:TAR:1,2014-07-01T13:54:00Z,28.1560,-82.7580,32.77,1111122 
COMPS,ioos:station:USF.COMPS:TAR:1,2014-07-01T14:00:00Z,28.1560,-82.7580,33.02,1111122 
COMPS,ioos:station:USF.COMPS:TAR:1,2014-07-01T14:06:00Z,28.1560,-82.7580,34.21,1111122 
COMPS,ioos:station:USF.COMPS:TAR:1,2014-07-01T14:12:00Z,28.1560,-82.7580,34.5,1111122 
COMPS,ioos:station:USF.COMPS:TAR:1,2014-07-01T14:18:00Z,28.1560,-82.7580,34.17,1111122 
COMPS,ioos:station:USF.COMPS:TAR:1,2014-07-01T14:24:00Z,28.1560,-82.7580,34.67,1111122 
COMPS,ioos:station:USF.COMPS:TAR:1,2014-07-01T14:30:00Z,28.1560,-82.7580,35.54,1111122 
COMPS,ioos:station:USF.COMPS:TAR:1,2014-07-01T14:36:00Z,28.1560,-82.7580,36.02,1111122 
COMPS,ioos:station:USF.COMPS:TAR:1,2014-07-01T14:42:00Z,28.1560,-82.7580,36.38,1111122 
COMPS,ioos:station:USF.COMPS:TAR:1,2014-07-01T14:48:00Z,28.1560,-82.7580,35.57,1111122 
COMPS,ioos:station:USF.COMPS:TAR:1,2014-07-01T14:54:00Z,28.1560,-82.7580,34.12,1111122 
COMPS,ioos:station:USF.COMPS:TAR:1,2014-07-01T15:00:00Z,28.1560,-82.7580,33.53,1111122 
COMPS,ioos:station:USF.COMPS:TAR:1,2014-07-01T15:06:00Z,28.1560,-82.7580,33.63,1111122 
COMPS,ioos:station:USF.COMPS:TAR:1,2014-07-01T15:12:00Z,28.1560,-82.7580,34.23,1111122 
COMPS,ioos:station:USF.COMPS:TAR:1,2014-07-01T15:18:00Z,28.1560,-82.7580,35.49,1111122 
COMPS,ioos:station:USF.COMPS:TAR:1,2014-07-01T15:24:00Z,28.1560,-82.7580,35.59,1111122 
COMPS,ioos:station:USF.COMPS:TAR:1,2014-07-01T15:30:00Z,28.1560,-82.7580,36.09,1111122 
COMPS,ioos:station:USF.COMPS:TAR:1,2014-07-01T15:36:00Z,28.1560,-82.7580,37.31,1111122 
COMPS,ioos:station:USF.COMPS:TAR:1,2014-07-01T15:42:00Z,28.1560,-82.7580,36.99,1111122 
COMPS,ioos:station:USF.COMPS:TAR:1,2014-07-01T15:48:00Z,28.1560,-82.7580,35.36,1111122 
COMPS,ioos:station:USF.COMPS:TAR:1,2014-07-01T15:54:00Z,28.1560,-82.7580,35.22,1111122 
COMPS,ioos:station:USF.COMPS:TAR:1,2014-07-01T16:00:00Z,28.1560,-82.7580,35.74,1111122 
COMPS,ioos:station:USF.COMPS:TAR:1,2014-07-01T16:06:00Z,28.1560,-82.7580,35.6,1111122 
COMPS,ioos:station:USF.COMPS:TAR:1,2014-07-01T16:12:00Z,28.1560,-82.7580,35.12,1111122 
COMPS,ioos:station:USF.COMPS:TAR:1,2014-07-01T16:18:00Z,28.1560,-82.7580,34.9,1111122 
COMPS,ioos:station:USF.COMPS:TAR:1,2014-07-01T16:24:00Z,28.1560,-82.7580,35.32,1111122 
COMPS,ioos:station:USF.COMPS:TAR:1,2014-07-01T16:30:00Z,28.1560,-82.7580,35.94,1111122 
COMPS,ioos:station:USF.COMPS:TAR:1,2014-07-01T16:36:00Z,28.1560,-82.7580,36.34,1111122 
COMPS,ioos:station:USF.COMPS:TAR:1,2014-07-01T16:42:00Z,28.1560,-82.7580,36.35,1111122 
COMPS,ioos:station:USF.COMPS:TAR:1,2014-07-01T16:48:00Z,28.1560,-82.7580,36.72,1111122 
COMPS,ioos:station:USF.COMPS:TAR:1,2014-07-01T16:54:00Z,28.1560,-82.7580,36.65,1111122 
COMPS,ioos:station:USF.COMPS:TAR:1,2014-07-01T17:00:00Z,28.1560,-82.7580,36.42,1111122 
COMPS,ioos:station:USF.COMPS:TAR:1,2014-07-01T17:06:00Z,28.1560,-82.7580,36.31,1111122 
COMPS,ioos:station:USF.COMPS:TAR:1,2014-07-01T17:12:00Z,28.1560,-82.7580,36.44,1111122 
COMPS,ioos:station:USF.COMPS:TAR:1,2014-07-01T17:18:00Z,28.1560,-82.7580,36.47,1111122 
COMPS,ioos:station:USF.COMPS:TAR:1,2014-07-01T17:24:00Z,28.1560,-82.7580,36.47,1111122 
COMPS,ioos:station:USF.COMPS:TAR:1,2014-07-01T17:30:00Z,28.1560,-82.7580,36.12,1111122 
COMPS,ioos:station:USF.COMPS:TAR:1,2014-07-01T17:36:00Z,28.1560,-82.7580,35.88,1111122 
COMPS,ioos:station:USF.COMPS:TAR:1,2014-07-01T17:42:00Z,28.1560,-82.7580,35.98,1111122 
COMPS,ioos:station:USF.COMPS:TAR:1,2014-07-01T17:48:00Z,28.1560,-82.7580,36.31,1111122 
COMPS,ioos:station:USF.COMPS:TAR:1,2014-07-01T17:54:00Z,28.1560,-82.7580,36.3,1111122 
COMPS,ioos:station:USF.COMPS:TAR:1,2014-07-01T18:00:00Z,28.1560,-82.7580,36.4,1111122 
COMPS,ioos:station:USF.COMPS:TAR:1,2014-07-01T18:06:00Z,28.1560,-82.7580,36.23,1111122 
COMPS,ioos:station:USF.COMPS:TAR:1,2014-07-01T18:12:00Z,28.1560,-82.7580,36.0,1111122 
COMPS,ioos:station:USF.COMPS:TAR:1,2014-07-01T18:18:00Z,28.1560,-82.7580,35.89,1111122 
COMPS,ioos:station:USF.COMPS:TAR:1,2014-07-01T18:24:00Z,28.1560,-82.7580,35.84,1111122 
COMPS,ioos:station:USF.COMPS:TAR:1,2014-07-01T18:30:00Z,28.1560,-82.7580,34.7,1111122 
COMPS,ioos:station:USF.COMPS:TAR:1,2014-07-01T18:36:00Z,28.1560,-82.7580,34.0,1111122 
COMPS,ioos:station:USF.COMPS:TAR:1,2014-07-01T18:42:00Z,28.1560,-82.7580,34.29,1111122 
COMPS,ioos:station:USF.COMPS:TAR:1,2014-07-01T18:48:00Z,28.1560,-82.7580,33.51,1111122 
COMPS,ioos:station:USF.COMPS:TAR:1,2014-07-01T18:54:00Z,28.1560,-82.7580,33.95,1111122 
COMPS,ioos:station:USF.COMPS:TAR:1,2014-07-01T19:00:00Z,28.1560,-82.7580,34.59,1111122 
COMPS,ioos:station:USF.COMPS:TAR:1,2014-07-01T19:06:00Z,28.1560,-82.7580,34.25,1111122 
COMPS,ioos:station:USF.COMPS:TAR:1,2014-07-01T19:12:00Z,28.1560,-82.7580,34.49,1111122 
COMPS,ioos:station:USF.COMPS:TAR:1,2014-07-01T19:18:00Z,28.1560,-82.7580,34.33,1111122 
COMPS,ioos:station:USF.COMPS:TAR:1,2014-07-01T19:24:00Z,28.1560,-82.7580,34.93,1111122 
COMPS,ioos:station:USF.COMPS:TAR:1,2014-07-01T19:30:00Z,28.1560,-82.7580,35.03,1111122 
COMPS,ioos:station:USF.COMPS:TAR:1,2014-07-01T19:36:00Z,28.1560,-82.7580,34.94,1111122 
COMPS,ioos:station:USF.COMPS:TAR:1,2014-07-01T19:42:00Z,28.1560,-82.7580,34.47,1111122 
COMPS,ioos:station:USF.COMPS:TAR:1,2014-07-01T19:48:00Z,28.1560,-82.7580,33.66,1111122 
COMPS,ioos:station:USF.COMPS:TAR:1,2014-07-01T19:54:00Z,28.1560,-82.7580,34.3,1111122 
COMPS,ioos:station:USF.COMPS:TAR:1,2014-07-01T20:00:00Z,28.1560,-82.7580,35.07,1111122 
COMPS,ioos:station:USF.COMPS:TAR:1,2014-07-01T20:06:00Z,28.1560,-82.7580,34.93,1111122 
COMPS,ioos:station:USF.COMPS:TAR:1,2014-07-01T20:12:00Z,28.1560,-82.7580,34.04,1111122 
COMPS,ioos:station:USF.COMPS:TAR:1,2014-07-01T20:18:00Z,28.1560,-82.7580,34.39,1111122 
COMPS,ioos:station:USF.COMPS:TAR:1,2014-07-01T20:24:00Z,28.1560,-82.7580,34.87,1111122 
COMPS,ioos:station:USF.COMPS:TAR:1,2014-07-01T20:30:00Z,28.1560,-82.7580,34.75,1111122 
COMPS,ioos:station:USF.COMPS:TAR:1,2014-07-01T20:36:00Z,28.1560,-82.7580,34.73,1111122 
COMPS,ioos:station:USF.COMPS:TAR:1,2014-07-01T20:42:00Z,28.1560,-82.7580,33.68,1111122 
COMPS,ioos:station:USF.COMPS:TAR:1,2014-07-01T20:48:00Z,28.1560,-82.7580,33.47,1111122 
COMPS,ioos:station:USF.COMPS:TAR:1,2014-07-01T20:54:00Z,28.1560,-82.7580,33.71,1111122 
COMPS,ioos:station:USF.COMPS:TAR:1,2014-07-01T21:00:00Z,28.1560,-82.7580,34.13,1111122 
COMPS,ioos:station:USF.COMPS:TAR:1,2014-07-01T21:06:00Z,28.1560,-82.7580,34.51,1111122 
COMPS,ioos:station:USF.COMPS:TAR:1,2014-07-01T21:12:00Z,28.1560,-82.7580,34.17,1111122 
COMPS,ioos:station:USF.COMPS:TAR:1,2014-07-01T21:18:00Z,28.1560,-82.7580,33.81,1111122 
COMPS,ioos:station:USF.COMPS:TAR:1,2014-07-01T21:24:00Z,28.1560,-82.7580,34.34,1111122 
COMPS,ioos:station:USF.COMPS:TAR:1,2014-07-01T21:30:00Z,28.1560,-82.7580,34.49,1111122 
COMPS,ioos:station:USF.COMPS:TAR:1,2014-07-01T21:36:00Z,28.1560,-82.7580,34.62,1111122 
COMPS,ioos:station:USF.COMPS:TAR:1,2014-07-01T21:42:00Z,28.1560,-82.7580,34.23,1111122 
COMPS,ioos:station:USF.COMPS:TAR:1,2014-07-01T21:48:00Z,28.1560,-82.7580,33.87,1111122 
COMPS,ioos:station:USF.COMPS:TAR:1,2014-07-01T21:54:00Z,28.1560,-82.7580,34.2,1111122 
COMPS,ioos:station:USF.COMPS:TAR:1,2014-07-01T22:00:00Z,28.1560,-82.7580,34.23,1111122 
COMPS,ioos:station:USF.COMPS:TAR:1,2014-07-01T22:06:00Z,28.1560,-82.7580,34.05,1111122 
COMPS,ioos:station:USF.COMPS:TAR:1,2014-07-01T22:12:00Z,28.1560,-82.7580,33.72,1111122 
COMPS,ioos:station:USF.COMPS:TAR:1,2014-07-01T22:18:00Z,28.1560,-82.7580,33.36,1111122 
COMPS,ioos:station:USF.COMPS:TAR:1,2014-07-01T22:24:00Z,28.1560,-82.7580,33.25,1111122 
COMPS,ioos:station:USF.COMPS:TAR:1,2014-07-01T22:30:00Z,28.1560,-82.7580,32.93,1111122 
COMPS,ioos:station:USF.COMPS:TAR:1,2014-07-01T22:36:00Z,28.1560,-82.7580,33.15,1111122 
COMPS,ioos:station:USF.COMPS:TAR:1,2014-07-01T22:42:00Z,28.1560,-82.7580,32.78,1111122 
COMPS,ioos:station:USF.COMPS:TAR:1,2014-07-01T22:48:00Z,28.1560,-82.7580,32.36,1111122 
COMPS,ioos:station:USF.COMPS:TAR:1,2014-07-01T22:54:00Z,28.1560,-82.7580,31.78,1111122 
COMPS,ioos:station:USF.COMPS:TAR:1,2014-07-01T23:00:00Z,28.1560,-82.7580,31.33,1111122 
COMPS,ioos:station:USF.COMPS:TAR:1,2014-07-01T23:06:00Z,28.1560,-82.7580,31.44,1111122 
COMPS,ioos:station:USF.COMPS:TAR:1,2014-07-01T23:12:00Z,28.1560,-82.7580,31.4,1111122 
COMPS,ioos:station:USF.COMPS:TAR:1,2014-07-01T23:18:00Z,28.1560,-82.7580,31.29,1111122 
COMPS,ioos:station:USF.COMPS:TAR:1,2014-07-01T23:24:00Z,28.1560,-82.7580,31.37,1111122 
COMPS,ioos:station:USF.COMPS:TAR:1,2014-07-01T23:30:00Z,28.1560,-82.7580,31.01,1111122 
COMPS,ioos:station:USF.COMPS:TAR:1,2014-07-01T23:36:00Z,28.1560,-82.7580,29.6,1111122 
COMPS,ioos:station:USF.COMPS:TAR:1,2014-07-01T23:42:00Z,28.1560,-82.7580,29.18,1111122 
COMPS,ioos:station:USF.COMPS:TAR:1,2014-07-01T23:48:00Z,28.1560,-82.7580,27.31,1111122 
COMPS,ioos:station:USF.COMPS:TAR:1,2014-07-01T23:54:00Z,28.1560,-82.7580,25.77,1111122 
COMPS,ioos:station:USF.COMPS:TAR:1,2014-07-02T00:00:00Z,28.1560,-82.7580,25.8,1111122 
COMPS,ioos:station:USF.COMPS:TAR:1,2014-07-02T00:06:00Z,28.1560,-82.7580,26.04,1111122 
COMPS,ioos:station:USF.COMPS:TAR:1,2014-07-02T00:12:00Z,28.1560,-82.7580,26.26,1111122 
COMPS,ioos:station:USF.COMPS:TAR:1,2014-07-02T00:18:00Z,28.1560,-82.7580,26.24,1111122 
COMPS,ioos:station:USF.COMPS:TAR:1,2014-07-02T00:24:00Z,28.1560,-82.7580,26.5,1111122 
COMPS,ioos:station:USF.COMPS:TAR:1,2014-07-02T00:30:00Z,28.1560,-82.7580,26.46,1111122 
COMPS,ioos:station:USF.COMPS:TAR:1,2014-07-02T00:36:00Z,28.1560,-82.7580,26.61,1111122 
COMPS,ioos:station:USF.COMPS:TAR:1,2014-07-02T00:42:00Z,28.1560,-82.7580,26.94,1111122 
COMPS,ioos:station:USF.COMPS:TAR:1,2014-07-02T00:48:00Z,28.1560,-82.7580,26.96,1111122 
COMPS,ioos:station:USF.COMPS:TAR:1,2014-07-02T00:54:00Z,28.1560,-82.7580,26.78,1111122 
COMPS,ioos:station:USF.COMPS:TAR:1,2014-07-02T01:00:00Z,28.1560,-82.7580,26.63,1111122 
COMPS,ioos:station:USF.COMPS:TAR:1,2014-07-02T01:06:00Z,28.1560,-82.7580,26.57,1111122 
COMPS,ioos:station:USF.COMPS:TAR:1,2014-07-02T01:12:00Z,28.1560,-82.7580,26.6,1111122 
COMPS,ioos:station:USF.COMPS:TAR:1,2014-07-02T01:18:00Z,28.1560,-82.7580,26.59,1111122 
COMPS,ioos:station:USF.COMPS:TAR:1,2014-07-02T01:24:00Z,28.1560,-82.7580,26.46,1111122 
COMPS,ioos:station:USF.COMPS:TAR:1,2014-07-02T01:30:00Z,28.1560,-82.7580,26.5,1111122 
COMPS,ioos:station:USF.COMPS:TAR:1,2014-07-02T01:36:00Z,28.1560,-82.7580,26.68,1111122 
COMPS,ioos:station:USF.COMPS:TAR:1,2014-07-02T01:42:00Z,28.1560,-82.7580,26.89,1111122 
COMPS,ioos:station:USF.COMPS:TAR:1,2014-07-02T01:48:00Z,28.1560,-82.7580,26.9,1111122 
COMPS,ioos:station:USF.COMPS:TAR:1,2014-07-02T01:54:00Z,28.1560,-82.7580,26.62,1111122 
COMPS,ioos:station:USF.COMPS:TAR:1,2014-07-02T02:00:00Z,28.1560,-82.7580,26.07,1111122 
COMPS,ioos:station:USF.COMPS:TAR:1,2014-07-02T02:06:00Z,28.1560,-82.7580,26.32,1111122 
COMPS,ioos:station:USF.COMPS:TAR:1,2014-07-02T02:12:00Z,28.1560,-82.7580,25.96,1111122 
COMPS,ioos:station:USF.COMPS:TAR:1,2014-07-02T02:18:00Z,28.1560,-82.7580,25.96,1111122 
COMPS,ioos:station:USF.COMPS:TAR:1,2014-07-02T02:24:00Z,28.1560,-82.7580,26.26,1111122 
COMPS,ioos:station:USF.COMPS:TAR:1,2014-07-02T02:30:00Z,28.1560,-82.7580,26.25,1111122 
COMPS,ioos:station:USF.COMPS:TAR:1,2014-07-02T02:36:00Z,28.1560,-82.7580,26.31,1111122 
COMPS,ioos:station:USF.COMPS:TAR:1,2014-07-02T02:42:00Z,28.1560,-82.7580,26.19,1111122 
COMPS,ioos:station:USF.COMPS:TAR:1,2014-07-02T02:48:00Z,28.1560,-82.7580,26.17,1111122 
COMPS,ioos:station:USF.COMPS:TAR:1,2014-07-02T02:54:00Z,28.1560,-82.7580,26.17,1111122 
COMPS,ioos:station:USF.COMPS:TAR:1,2014-07-02T03:00:00Z,28.1560,-82.7580,26.17,1111122 
COMPS,ioos:station:USF.COMPS:TAR:1,2014-07-02T03:06:00Z,28.1560,-82.7580,26.05,1111122 